Regional Weather Roundup
Issued by NWS Columbia, SC

Home | Current Version | Previous Version | Text Only | Print | Product List | Glossary On
Versions: 1 2 3 4 5 6 7 8 9 10 11 12 13 14 15 16 17 18 19 20 21 22 23 24 25 26 27
000
ASUS42 KCAE 031010
RWRCAE
REGIONAL WEATHER ROUNDUP
NATIONAL WEATHER SERVICE COLUMBIA SC
500 AM EST SAT DEC 03 2016

NOTE: "FAIR" INDICATES FEW OR NO CLOUDS BELOW 12,000 FEET WITH NO
SIGNIFICANT WEATHER AND/OR OBSTRUCTIONS TO VISIBILITY.

NOT ALL STATIONS ARE QUALITY CONTROLLED BY THE NATIONAL
WEATHER SERVICE. USE DATA WITH CAUTION...ESPECIALLY
DEWPOINT OBSERVATIONS.

SCZ001>056-GAZ040-063>065-077-031100-
...UPSTATE SOUTH CAROLINA...

CITY           SKY/WX    TMP DP  RH WIND       PRES   REMARKS
LIBERTY        MOSUNNY   31  30  95 CALM      30.20R
SPARTANBURG    CLEAR     45  23  42 NW5       30.20S
CLEMSON        PTCLDY    44  32  62 CALM      30.22R
GREER          NOT AVBL
ROCK HILL      CLOUDY    37  29  72 NE5       30.21S WCI  33
CHESTER        CLOUDY    43  27  52 N6        30.22S
LAURENS          N/A     39  32  75 N6        30.20S WCI  35


...CENTRAL SOUTH CAROLINA...

CITY           SKY/WX    TMP DP  RH WIND       PRES   REMARKS
COLUMBIA APT   PTCLDY    37  34  89 SW3       30.21R
COLUMBIA OWENS MOCLDY    40  36  86 CALM      30.22
MCENTIRE ANGB  PTCLDY    34  33  96 CALM      30.21R
ORANGEBURG     PTCLDY    37  36  96 CALM      30.22
SUMTER SHAW    CLOUDY    40  33  75 NE7       30.19R
NEWBERRY       PTSUNNY   36  34  93 CALM      30.24S
LANCASTER      MOSUNNY   36  34  93 CALM      30.23S
WINNSBORO      MOSUNNY   45  30  57 N3        30.21S


...EASTERN AND COASTAL SOUTH CAROLINA...

CITY           SKY/WX    TMP DP  RH WIND       PRES   REMARKS
MYRTLE BEACH   CLOUDY    43  32  65 N10       30.22S
N MYRTLE BCH   CLEAR     41  35  79 N9        30.20
MARION         FAIR      37  32  81 N7        30.23R WCI  32
HARTSVILLE     FAIR      41  30  65 N8        30.20F
FLORENCE       PTCLDY    42  33  70 N9        30.22
DARLINGTON     CLOUDY    40  32  73 N7        30.22
CHARLESTON APT PTCLDY    39  35  86 W3        30.22R
BEAUFORT       PTCLDY    42  39  89 CALM      30.21R
HILTON HEAD    PTCLDY    45  43  93 NW5       30.21F


...EASTERN GEORGIA...

CITY           SKY/WX    TMP DP  RH WIND       PRES   REMARKS
AUGUSTA BUSH F NOT AVBL
THOMSON        PTCLDY    38  37  97 CALM      30.27R
WASHINGTON     FAIR      46  34  61 NW6       30.21R
CLAXTON        FAIR     N/A N/A N/A CALM      30.23R
STATESBORO     PTCLDY    41  41  99 CALM      30.23R
SAVANNAH       MOCLDY    45  38  76 W3        30.21


...SOUTHERN NORTH CAROLINA...

CITY           SKY/WX    TMP DP  RH WIND       PRES   REMARKS
CHARLOTTE      CLOUDY    43  27  53 NE10      30.22
WADESBORO      CLOUDY    32  29  88 CALM      30.23R
RUTHERFORDTON  MOCLDY    36  30  80 CALM      30.22S
ASHEVILLE      CLEAR     39  25  57 N15       30.21F WCI  31

$$




USA.gov is the U.S. government's official web portal to all federal, state and local government web resources and services.